When you browse on this site, cookies collect data to enhance your experience and personalize the content and advertising you see.
Visit our Privacy Policy to learn more. By continuing to use the site, you agree to this use of cookies and data.
  • In Austria
  • List of Countries
  • For 7 days
  • Water Temperature
  • Weather Map
  • News
  • Weather Widgets
  • user-avatar
    Login

    Hourly Weather Vijayapura

    Today, 26 May, Tuesday

    Time Temperature Precipitation Wind Pressure Humidity
    00:00 +29°C° 0 mm 3 mps 684 mmHg 53%
    01:00 +29°C° 0 mm 3 mps 684 mmHg 57%
    02:00 +28°C° 0 mm 3 mps 683 mmHg 61%
    03:00 +27°C° 0 mm 3 mps 683 mmHg 63%
    04:00 +27°C° 0 mm 3 mps 683 mmHg 65%
    05:00 +26°C° 0 mm 2 mps 683 mmHg 67%
    06:00 +28°C° 0 mm 3 mps 684 mmHg 64%
    07:00 +29°C° 0 mm 3 mps 684 mmHg 62%
    08:00 +30°C° 0 mm 4 mps 685 mmHg 59%
    09:00 +31°C° 0 mm 3 mps 685 mmHg 51%
    10:00 +34°C° 0 mm 3 mps 685 mmHg 43%
    11:00 +36°C° 0 mm 3 mps 685 mmHg 35%
    12:00 +37°C° 0 mm 3 mps 685 mmHg 31%
    13:00 +38°C° 0 mm 3 mps 684 mmHg 27%
    14:00 +39°C° 0 mm 3 mps 683 mmHg 23%
    15:00 +38°C° 0 mm 3 mps 683 mmHg 24%
    16:00 +38°C° 0 mm 3 mps 683 mmHg 24%
    17:00 +38°C° 0 mm 3 mps 683 mmHg 24%
    18:00 +37°C° 0 mm 3 mps 683 mmHg 26%
    19:00 +36°C° 0 mm 2 mps 684 mmHg 29%
    20:00 +35°C° 0 mm 2 mps 684 mmHg 31%
    21:00 +35°C° 0 mm 2 mps 685 mmHg 35%
    22:00 +34°C° 0 mm 2 mps 685 mmHg 38%
    23:00 +32°C° 0 mm 2 mps 685 mmHg 42%

    Tomorrow, 27 May, Wednesday

    Time Temperature Precipitation Wind Pressure Humidity
    00:00 +31°C° 0 mm 2 mps 684 mmHg 46%
    01:00 +31°C° 0 mm 2 mps 684 mmHg 51%
    02:00 +30°C° 0 mm 2 mps 683 mmHg 55%
    03:00 +29°C° 0 mm 2 mps 683 mmHg 59%
    04:00 +28°C° 0 mm 2 mps 683 mmHg 63%
    05:00 +28°C° 0 mm 2 mps 683 mmHg 67%
    06:00 +29°C° 0 mm 3 mps 683 mmHg 63%
    07:00 +30°C° 0 mm 3 mps 684 mmHg 59%
    08:00 +30°C° 0 mm 4 mps 685 mmHg 55%
    09:00 +33°C° 0 mm 3 mps 685 mmHg 48%
    10:00 +35°C° 0 mm 3 mps 685 mmHg 41%
    11:00 +37°C° 0 mm 3 mps 685 mmHg 34%
    12:00 +37°C° 0 mm 3 mps 684 mmHg 31%
    13:00 +38°C° 0 mm 3 mps 683 mmHg 29%
    14:00 +38°C° 0 mm 3 mps 683 mmHg 26%
    15:00 +38°C° 0 mm 2 mps 682 mmHg 26%
    16:00 +38°C° 0 mm 2 mps 682 mmHg 25%
    17:00 +38°C° 0 mm 2 mps 682 mmHg 25%
    18:00 +36°C° 0.1 mm 3 mps 682 mmHg 32%
    19:00 +35°C° 0.1 mm 4 mps 683 mmHg 38%
    20:00 +33°C° 0.1 mm 5 mps 683 mmHg 45%
    21:00 +32°C° 0 mm 5 mps 683 mmHg 50%
    22:00 +30°C° 0 mm 5 mps 683 mmHg 55%
    23:00 +29°C° 0 mm 4 mps 683 mmHg 60%

    Day after tomorrow, 28 May, Thursday

    Time Temperature Precipitation Wind Pressure Humidity
    00:00 +28°C° 0 mm 4 mps 683 mmHg 62%
    01:00 +28°C° 0 mm 4 mps 682 mmHg 65%
    02:00 +27°C° 0 mm 4 mps 682 mmHg 67%
    03:00 +27°C° 0 mm 4 mps 682 mmHg 70%
    04:00 +26°C° 0 mm 4 mps 682 mmHg 73%
    05:00 +26°C° 0 mm 3 mps 682 mmHg 76%
    06:00 +27°C° 0 mm 4 mps 683 mmHg 69%
    07:00 +29°C° 0 mm 5 mps 684 mmHg 62%
    08:00 +30°C° 0 mm 6 mps 685 mmHg 55%
    09:00 +33°C° 0 mm 6 mps 685 mmHg 47%
    10:00 +35°C° 0 mm 5 mps 685 mmHg 38%
    11:00 +37°C° 0 mm 5 mps 685 mmHg 30%
    12:00 +39°C° 0 mm 5 mps 684 mmHg 27%
    13:00 +40°C° 0 mm 5 mps 683 mmHg 25%
    14:00 +41°C° 0 mm 4 mps 682 mmHg 23%
    15:00 +40°C° 0 mm 4 mps 682 mmHg 22%
    16:00 +40°C° 0 mm 4 mps 682 mmHg 22%
    17:00 +39°C° 0 mm 3 mps 681 mmHg 22%
    18:00 +37°C° 0 mm 4 mps 682 mmHg 29%
    19:00 +35°C° 0 mm 4 mps 682 mmHg 35%
    20:00 +33°C° 0 mm 4 mps 682 mmHg 42%
    21:00 +32°C° 0 mm 6 mps 683 mmHg 49%
    22:00 +30°C° 0 mm 7 mps 683 mmHg 55%
    23:00 +29°C° 0 mm 9 mps 683 mmHg 62%

    29 May, Friday

    Time Temperature Precipitation Wind Pressure Humidity
    00:00 +28°C° 0 mm 8 mps 683 mmHg 66%
    01:00 +28°C° 0 mm 7 mps 682 mmHg 70%
    02:00 +27°C° 0 mm 7 mps 682 mmHg 74%
    03:00 +27°C° 0 mm 6 mps 682 mmHg 75%
    04:00 +26°C° 0 mm 5 mps 682 mmHg 76%
    05:00 +26°C° 0 mm 5 mps 682 mmHg 77%
    06:00 +27°C° 0 mm 5 mps 683 mmHg 72%
    07:00 +28°C° 0 mm 5 mps 684 mmHg 67%
    08:00 +29°C° 0 mm 5 mps 684 mmHg 62%
    09:00 +32°C° 0 mm 5 mps 684 mmHg 52%
    10:00 +34°C° 0 mm 5 mps 684 mmHg 42%
    11:00 +36°C° 0 mm 5 mps 684 mmHg 33%
    12:00 +37°C° 0 mm 4 mps 684 mmHg 30%
    13:00 +38°C° 0 mm 4 mps 683 mmHg 27%
    14:00 +39°C° 0 mm 3 mps 682 mmHg 23%
    15:00 +38°C° 0 mm 3 mps 682 mmHg 24%
    16:00 +38°C° 0 mm 3 mps 682 mmHg 25%
    17:00 +38°C° 0 mm 3 mps 682 mmHg 25%
    18:00 +36°C° 0 mm 4 mps 682 mmHg 30%
    19:00 +34°C° 0 mm 4 mps 683 mmHg 35%
    20:00 +33°C° 0 mm 5 mps 683 mmHg 40%
    21:00 +32°C° 0 mm 5 mps 683 mmHg 46%
    22:00 +29°C° 0 mm 6 mps 683 mmHg 51%
    23:00 +28°C° 0 mm 6 mps 683 mmHg 57%

    30 May, Saturday

    Time Temperature Precipitation Wind Pressure Humidity
    00:00 +28°C° 0 mm 5 mps 683 mmHg 57%
    01:00 +28°C° 0 mm 5 mps 683 mmHg 58%
    02:00 +27°C° 0 mm 4 mps 682 mmHg 59%
    03:00 +27°C° 0 mm 4 mps 682 mmHg 62%
    04:00 +27°C° 0 mm 3 mps 683 mmHg 65%
    05:00 +26°C° 0 mm 3 mps 683 mmHg 68%
    06:00 +27°C° 0 mm 3 mps 683 mmHg 66%
    07:00 +28°C° 0 mm 4 mps 684 mmHg 63%
    08:00 +29°C° 0 mm 4 mps 685 mmHg 60%
    09:00 +33°C° 0 mm 4 mps 685 mmHg 51%
    10:00 +35°C° 0 mm 4 mps 685 mmHg 43%
    11:00 +37°C° 0 mm 4 mps 685 mmHg 34%
    12:00 +37°C° 0.1 mm 3 mps 685 mmHg 32%
    13:00 +37°C° 0.1 mm 3 mps 684 mmHg 31%
    14:00 +37°C° 0.1 mm 2 mps 683 mmHg 29%
    15:00 +36°C° 0.2 mm 3 mps 682 mmHg 35%
    16:00 +34°C° 0.2 mm 5 mps 682 mmHg 41%
    17:00 +32°C° 0.2 mm 6 mps 681 mmHg 47%
    18:00 +32°C° 0.3 mm 5 mps 682 mmHg 45%
    19:00 +32°C° 0.3 mm 4 mps 683 mmHg 43%
    20:00 +31°C° 0.3 mm 2 mps 683 mmHg 41%
    21:00 +31°C° 0 mm 2 mps 684 mmHg 43%
    22:00 +30°C° 0 mm 2 mps 684 mmHg 45%
    23:00 +30°C° 0 mm 2 mps 685 mmHg 48%

    31 May, Sunday

    Time Temperature Precipitation Wind Pressure Humidity
    00:00 +29°C° 0.1 mm 3 mps 684 mmHg 53%
    01:00 +28°C° 0.1 mm 3 mps 683 mmHg 58%
    02:00 +27°C° 0.1 mm 4 mps 683 mmHg 64%
    03:00 +26°C° 0 mm 3 mps 683 mmHg 66%
    04:00 +26°C° 0 mm 3 mps 683 mmHg 69%
    05:00 +26°C° 0 mm 3 mps 684 mmHg 72%
    06:00 +27°C° 0 mm 3 mps 684 mmHg 65%
    07:00 +28°C° 0 mm 3 mps 685 mmHg 58%
    08:00 +30°C° 0 mm 4 mps 686 mmHg 51%
    09:00 +33°C° 0 mm 3 mps 686 mmHg 46%
    10:00 +34°C° 0 mm 3 mps 686 mmHg 40%
    11:00 +36°C° 0 mm 3 mps 686 mmHg 35%
    12:00 +37°C° 0 mm 2 mps 685 mmHg 32%
    13:00 +38°C° 0 mm 2 mps 685 mmHg 29%
    14:00 +37°C° 0 mm 1 mps 684 mmHg 26%
    15:00 +36°C° 0.3 mm 2 mps 683 mmHg 33%
    16:00 +34°C° 0.3 mm 2 mps 683 mmHg 40%
    17:00 +31°C° 0.3 mm 3 mps 682 mmHg 46%
    18:00 +31°C° 0.3 mm 3 mps 683 mmHg 48%
    19:00 +30°C° 0.3 mm 3 mps 683 mmHg 49%
    20:00 +30°C° 0.3 mm 3 mps 684 mmHg 50%
    21:00 +29°C° 0.4 mm 3 mps 685 mmHg 52%
    22:00 +29°C° 0.4 mm 4 mps 685 mmHg 54%
    23:00 +28°C° 0.4 mm 4 mps 686 mmHg 56%
    Show more